Hourly Weather Kisvarda

Today, 24 October, Saturday

Time Temperature Precipitation Wind Pressure Humidity
00:00 +14°C° 0 mm 1 mps 752 mmHg 77%
01:00 +14°C° 0 mm 1 mps 752 mmHg 78%
02:00 +14°C° 0 mm 1 mps 752 mmHg 78%
03:00 +14°C° 0 mm 1 mps 752 mmHg 79%
04:00 +14°C° 0 mm 1 mps 752 mmHg 79%
05:00 +14°C° 0 mm 1 mps 752 mmHg 79%
06:00 +14°C° 0 mm 1 mps 752 mmHg 80%
07:00 +14°C° 0 mm 1 mps 752 mmHg 80%
08:00 +14°C° 0 mm 1 mps 752 mmHg 78%
09:00 +15°C° 0 mm 1 mps 752 mmHg 77%
10:00 +15°C° 0 mm 1 mps 752 mmHg 76%
11:00 +16°C° 0 mm 1 mps 752 mmHg 74%
12:00 +16°C° 0 mm 1 mps 753 mmHg 73%
13:00 +17°C° 0 mm 2 mps 753 mmHg 72%
14:00 +16°C° 0 mm 2 mps 753 mmHg 73%
15:00 +16°C° 0 mm 2 mps 753 mmHg 75%
16:00 +16°C° 0 mm 2 mps 753 mmHg 76%
17:00 +15°C° 0 mm 2 mps 753 mmHg 77%
18:00 +15°C° 0 mm 2 mps 753 mmHg 78%
19:00 +14°C° 0 mm 2 mps 753 mmHg 79%
20:00 +14°C° 0 mm 2 mps 753 mmHg 79%
21:00 +14°C° 0 mm 2 mps 753 mmHg 80%
22:00 +14°C° 0 mm 2 mps 753 mmHg 80%
23:00 +14°C° 0 mm 2 mps 753 mmHg 81%

Tomorrow, 25 October, Sunday

Time Temperature Precipitation Wind Pressure Humidity
00:00 +14°C° 0 mm 2 mps 753 mmHg 81%
01:00 +13°C° 0 mm 2 mps 753 mmHg 82%
02:00 +13°C° 0 mm 2 mps 753 mmHg 83%
03:00 +13°C° 0 mm 1 mps 752 mmHg 83%
04:00 +13°C° 0 mm 1 mps 752 mmHg 84%
05:00 +13°C° 0.5 mm 2 mps 752 mmHg 86%
06:00 +13°C° 0.5 mm 2 mps 752 mmHg 89%
07:00 +13°C° 0.5 mm 2 mps 752 mmHg 91%
08:00 +13°C° 0.7 mm 2 mps 752 mmHg 92%
09:00 +13°C° 0.7 mm 2 mps 751 mmHg 92%
10:00 +13°C° 0.7 mm 2 mps 751 mmHg 93%
11:00 +13°C° 0.6 mm 2 mps 751 mmHg 93%
12:00 +13°C° 0.6 mm 2 mps 751 mmHg 93%
13:00 +13°C° 0.6 mm 2 mps 751 mmHg 94%
14:00 +13°C° 0.1 mm 2 mps 751 mmHg 93%
15:00 +13°C° 0.1 mm 2 mps 750 mmHg 93%
16:00 +13°C° 0.1 mm 1 mps 750 mmHg 93%
17:00 +13°C° 0 mm 1 mps 750 mmHg 93%
18:00 +13°C° 0 mm 1 mps 751 mmHg 94%
19:00 +13°C° 0 mm 1 mps 751 mmHg 94%
20:00 +13°C° 0 mm 1 mps 751 mmHg 94%
21:00 +13°C° 0 mm 1 mps 751 mmHg 95%
22:00 +13°C° 0 mm 1 mps 751 mmHg 95%
23:00 +13°C° 0.1 mm 1 mps 751 mmHg 95%

Day after tomorrow, 26 October, Monday

Time Temperature Precipitation Wind Pressure Humidity
00:00 +13°C° 0.1 mm 2 mps 751 mmHg 95%
01:00 +13°C° 0.1 mm 2 mps 751 mmHg 95%
02:00 +13°C° 0 mm 2 mps 751 mmHg 94%
03:00 +13°C° 0 mm 2 mps 751 mmHg 94%
04:00 +13°C° 0 mm 2 mps 750 mmHg 94%
05:00 +13°C° 0 mm 2 mps 751 mmHg 93%
06:00 +13°C° 0 mm 2 mps 751 mmHg 92%
07:00 +13°C° 0 mm 2 mps 751 mmHg 91%
08:00 +13°C° 0 mm 3 mps 751 mmHg 87%
09:00 +14°C° 0 mm 3 mps 751 mmHg 82%
10:00 +16°C° 0 mm 3 mps 750 mmHg 78%
11:00 +17°C° 0 mm 3 mps 750 mmHg 77%
12:00 +17°C° 0 mm 3 mps 750 mmHg 75%
13:00 +18°C° 0 mm 4 mps 750 mmHg 73%
14:00 +17°C° 0 mm 3 mps 750 mmHg 75%
15:00 +17°C° 0 mm 3 mps 750 mmHg 77%
16:00 +16°C° 0 mm 2 mps 750 mmHg 79%
17:00 +16°C° 0 mm 2 mps 750 mmHg 82%
18:00 +15°C° 0 mm 2 mps 750 mmHg 84%
19:00 +13°C° 0 mm 3 mps 751 mmHg 86%
20:00 +13°C° 0 mm 3 mps 751 mmHg 87%
21:00 +13°C° 0 mm 3 mps 751 mmHg 88%
22:00 +12°C° 0 mm 3 mps 751 mmHg 89%
23:00 +12°C° 0 mm 3 mps 751 mmHg 89%

, 27 October, Tuesday

Time Temperature Precipitation Wind Pressure Humidity
00:00 +13°C° 0 mm 2 mps 751 mmHg 89%
01:00 +13°C° 0 mm 2 mps 751 mmHg 90%
02:00 +13°C° 0 mm 2 mps 751 mmHg 90%
03:00 +12°C° 0 mm 2 mps 751 mmHg 90%
04:00 +12°C° 0 mm 2 mps 751 mmHg 91%
05:00 +12°C° 0 mm 2 mps 751 mmHg 91%
06:00 +12°C° 0 mm 2 mps 751 mmHg 90%
07:00 +12°C° 0 mm 2 mps 751 mmHg 90%
08:00 +14°C° 0 mm 2 mps 751 mmHg 84%
09:00 +15°C° 0 mm 2 mps 751 mmHg 77%
10:00 +17°C° 0 mm 2 mps 751 mmHg 70%
11:00 +18°C° 0 mm 2 mps 751 mmHg 66%
12:00 +19°C° 0 mm 2 mps 750 mmHg 62%
13:00 +20°C° 0 mm 2 mps 750 mmHg 59%
14:00 +19°C° 0 mm 2 mps 750 mmHg 62%
15:00 +19°C° 0 mm 1 mps 750 mmHg 66%
16:00 +18°C° 0 mm 1 mps 750 mmHg 70%
17:00 +16°C° 0 mm 1 mps 750 mmHg 72%
18:00 +16°C° 0 mm 1 mps 750 mmHg 74%
19:00 +15°C° 0 mm 1 mps 751 mmHg 77%
20:00 +15°C° 0 mm 1 mps 751 mmHg 78%
21:00 +14°C° 0 mm 1 mps 751 mmHg 79%
22:00 +14°C° 0 mm 1 mps 751 mmHg 80%
23:00 +14°C° 0 mm 1 mps 751 mmHg 81%

27 October, Tuesday

Time Temperature Precipitation Wind Pressure Humidity
00:00 +13°C° 0 mm 2 mps 751 mmHg 89%
01:00 +13°C° 0 mm 2 mps 751 mmHg 90%
02:00 +13°C° 0 mm 2 mps 751 mmHg 90%
03:00 +12°C° 0 mm 2 mps 751 mmHg 90%
04:00 +12°C° 0 mm 2 mps 751 mmHg 91%
05:00 +12°C° 0 mm 2 mps 751 mmHg 91%
06:00 +12°C° 0 mm 2 mps 751 mmHg 90%
07:00 +12°C° 0 mm 2 mps 751 mmHg 90%
08:00 +14°C° 0 mm 2 mps 751 mmHg 84%
09:00 +15°C° 0 mm 2 mps 751 mmHg 77%
10:00 +17°C° 0 mm 2 mps 751 mmHg 70%
11:00 +18°C° 0 mm 2 mps 751 mmHg 66%
12:00 +19°C° 0 mm 2 mps 750 mmHg 62%
13:00 +20°C° 0 mm 2 mps 750 mmHg 59%
14:00 +19°C° 0 mm 2 mps 750 mmHg 62%
15:00 +19°C° 0 mm 1 mps 750 mmHg 66%
16:00 +18°C° 0 mm 1 mps 750 mmHg 70%
17:00 +16°C° 0 mm 1 mps 750 mmHg 72%
18:00 +16°C° 0 mm 1 mps 750 mmHg 74%
19:00 +15°C° 0 mm 1 mps 751 mmHg 77%
20:00 +15°C° 0 mm 1 mps 751 mmHg 78%
21:00 +14°C° 0 mm 1 mps 751 mmHg 79%
22:00 +14°C° 0 mm 1 mps 751 mmHg 80%
23:00 +14°C° 0 mm 1 mps 751 mmHg 81%

28 October, Wednesday

Time Temperature Precipitation Wind Pressure Humidity
00:00 +13°C° 0 mm 1 mps 751 mmHg 82%
01:00 +13°C° 0 mm 1 mps 751 mmHg 83%
02:00 +13°C° 0 mm 1 mps 751 mmHg 84%
03:00 +13°C° 0 mm 1 mps 751 mmHg 84%
04:00 +12°C° 0 mm 1 mps 751 mmHg 85%
05:00 +12°C° 0 mm 1 mps 751 mmHg 85%
06:00 +12°C° 0 mm 1 mps 752 mmHg 84%
07:00 +12°C° 0 mm 1 mps 752 mmHg 84%
08:00 +13°C° 0 mm 1 mps 752 mmHg 79%
09:00 +15°C° 0 mm 1 mps 752 mmHg 73%
10:00 +16°C° 0 mm 1 mps 752 mmHg 68%
11:00 +18°C° 0 mm 1 mps 752 mmHg 66%
12:00 +19°C° 0 mm 1 mps 752 mmHg 63%
13:00 +17°C° 0 mm 0 mps 752 mmHg 61%
14:00 +16°C° 0 mm 0 mps 752 mmHg 65%
15:00 +16°C° 0 mm 0 mps 752 mmHg 69%
16:00 +15°C° 0 mm 0 mps 752 mmHg 73%
17:00 +14°C° 0 mm 0 mps 752 mmHg 75%
18:00 +14°C° 0 mm 0 mps 752 mmHg 77%
19:00 +13°C° 0 mm 0 mps 752 mmHg 79%
20:00 +13°C° 0 mm 0 mps 753 mmHg 80%
21:00 +12°C° 0 mm 0 mps 753 mmHg 82%
22:00 +12°C° 0 mm 0 mps 753 mmHg 83%
23:00 +12°C° 0 mm 0 mps 753 mmHg 84%

29 October, Thursday

Time Temperature Precipitation Wind Pressure Humidity
00:00 +12°C° 0 mm 0 mps 753 mmHg 85%
01:00 +11°C° 0 mm 0 mps 753 mmHg 86%
02:00 +11°C° 0 mm 0 mps 753 mmHg 87%
03:00 +11°C° 0 mm 0 mps 753 mmHg 87%
04:00 +11°C° 0 mm 0 mps 753 mmHg 88%
05:00 +11°C° 0 mm 0 mps 753 mmHg 88%
06:00 +11°C° 0 mm 0 mps 754 mmHg 89%
07:00 +11°C° 0 mm 0 mps 754 mmHg 89%
08:00 +12°C° 0 mm 0 mps 754 mmHg 84%
09:00 +13°C° 0 mm 0 mps 754 mmHg 79%
10:00 +15°C° 0 mm 1 mps 754 mmHg 74%
11:00 +16°C° 0 mm 1 mps 754 mmHg 72%
12:00 +18°C° 0 mm 1 mps 754 mmHg 70%
13:00 +18°C° 0 mm 1 mps 754 mmHg 67%
14:00 +18°C° 0 mm 1 mps 755 mmHg 71%
15:00 +16°C° 0 mm 1 mps 755 mmHg 75%
16:00 +14°C° 0 mm 0 mps 755 mmHg 78%
17:00 +14°C° 0 mm 0 mps 755 mmHg 81%
18:00 +13°C° 0 mm 0 mps 756 mmHg 83%
19:00 +13°C° 0 mm 0 mps 756 mmHg 86%
20:00 +12°C° 0 mm 0 mps 757 mmHg 87%
21:00 +12°C° 0 mm 0 mps 757 mmHg 88%
22:00 +12°C° 0 mm 0 mps 757 mmHg 89%
23:00 +12°C° 0 mm 0 mps 758 mmHg 89%
Show more